Weather History for CYMX - February, 2011

Change the Weather History Date:

Tuesday, February 22, 2011

  Actual Average Record
Temperature  
Mean Temperature 8 °F -  
Max Temperature 21 °F 24 °F 42 °F (2014)
Min Temperature -4 °F 7 °F -11 °F (1999)
Degree Days  
Heating Degree Days 56    
Moisture  
Dew Point -6 °F    
Average Humidity 53    
Maximum Humidity 61    
Minimum Humidity 42    
Precipitation  
Precipitation 0.00 in - - ()
Sea Level Pressure  
Sea Level Pressure 30.25 in    
Wind  
Wind Speed 4 mph ()    
Max Wind Speed 8 mph    
Max Gust Speed -    
Averages and records for this station are not official NWS values.
T = Trace of Precipitation, MM = Missing Value Source: Averaged Metar Reports

Daily Weather History Graph

Daily Weather History Graph

Search for Another Location

Airport or City:

Trip Planner

Search our weather history database for the weather conditions in past years. The results will help you decide how hot, cold, wet, or windy it might be!

Date:

Astronomy

Feb. 22, 2011 Rise Set
Actual Time 6:47 AM EST 5:32 PM EST
Civil Twilight 6:17 AM EST 6:02 PM EST
Nautical Twilight 5:42 AM EST 6:37 PM EST
Astronomical Twilight 5:08 AM EST 7:11 PM EST
Moon 11:39 PM EST (2/22) 8:31 AM EST (2/22)
Length of Visible Light 11h 45m
Length of Day
10h 45m
Waning Gibbous, 75% of the Moon is Illuminated
Feb 22
Waning Gibbous
Feb 24
Last Quarter
Mar 4
New
Mar 12
First Quarter
Mar 19
Full

Hourly Weather History & Observations

Time (EST) Temp. Windchill Dew Point Humidity Pressure Visibility Wind Dir Wind Speed Gust Speed Precip Events Conditions
12:00 AM 1.4 °F -8.3 °F -11.2 °F 56% 30.16 in 25.0 mi West 4.6 mph - N/A   Clear
1:00 AM -0.4 °F -10.4 °F -13.0 °F 55% 30.15 in 25.0 mi West 4.6 mph - N/A   Clear
2:00 AM -0.4 °F - -13.0 °F 55% 30.15 in 25.0 mi West 2.3 mph - N/A   Clear
3:00 AM -0.4 °F -8.3 °F -13.0 °F 55% 30.15 in 25.0 mi West 3.5 mph - N/A   Clear
4:00 AM -4.0 °F -14.6 °F -14.8 °F 60% 30.17 in 25.0 mi West 4.6 mph - N/A   Clear
5:00 AM -0.4 °F -12.0 °F -11.2 °F 60% 30.18 in 25.0 mi West 5.8 mph - N/A   Clear
6:00 AM -2.2 °F -12.5 °F -13.0 °F 60% 30.20 in 25.0 mi West 4.6 mph - N/A   Clear
7:00 AM -2.2 °F -10.4 °F -13.0 °F 60% 30.22 in 45.0 mi WSW 3.5 mph - N/A   Partly Cloudy
8:00 AM -0.4 °F -10.4 °F -11.2 °F 60% 30.25 in 45.0 mi West 4.6 mph - N/A   Partly Cloudy
9:00 AM 1.4 °F - -9.4 °F 61% 30.27 in 45.0 mi Calm Calm - N/A   Partly Cloudy
10:00 AM 6.8 °F - -4.0 °F 61% 30.27 in 45.0 mi SW 2.3 mph - N/A   Partly Cloudy
11:00 AM 12.2 °F 4.3 °F -2.2 °F 53% 30.28 in 45.0 mi SSW 4.6 mph - N/A   Clear
12:00 PM 14.0 °F 3.9 °F -2.2 °F 49% 30.28 in 45.0 mi West 6.9 mph - N/A   Clear
1:00 PM 15.8 °F 5.1 °F 1.4 °F 53% 30.27 in 45.0 mi WSW 8.1 mph - N/A   Clear
2:00 PM 17.6 °F 8.2 °F 1.4 °F 49% 30.27 in 45.0 mi SW 6.9 mph - N/A   Clear
3:00 PM 19.4 °F 12.8 °F 3.2 °F 49% 30.27 in 45.0 mi WSW 4.6 mph - N/A   Clear
4:00 PM 21.2 °F 11.7 °F 1.4 °F 42% 30.27 in 45.0 mi SW 8.1 mph - N/A   Clear
5:00 PM 21.2 °F 12.6 °F 1.4 °F 42% 30.28 in 45.0 mi SW 6.9 mph - N/A   Clear
6:00 PM 19.4 °F 12.8 °F 1.4 °F 46% 30.29 in 25.0 mi SW 4.6 mph - N/A   Partly Cloudy
7:00 PM 17.6 °F 9.3 °F 1.4 °F 49% 30.30 in 25.0 mi WSW 5.8 mph - N/A   Clear
8:00 PM 15.8 °F 7.2 °F -0.4 °F 49% 30.32 in 25.0 mi West 5.8 mph - N/A   Clear
9:00 PM 10.4 °F 2.2 °F -4.0 °F 52% 30.34 in 25.0 mi WNW 4.6 mph - N/A   Clear
10:00 PM 12.2 °F 4.3 °F -4.0 °F 48% 30.34 in 25.0 mi West 4.6 mph - N/A   Clear
11:00 PM 5.0 °F - -9.4 °F 52% 30.35 in 25.0 mi West 2.3 mph - N/A   Clear